User: anonymous   Login
Location: Whitehorse
(60.7170°N, 135.0500°W)
Time: 21:26:10
(UTC-07:00)
Language:

Cosmos 2219 Rocket - Orbit

View from above orbital plane
View from above orbital plane
View from above satellite
View from above satellite

Ground track
Ground track

The orbit data is extracted from the following two-line orbital elements,

1 22220U 92076B   15149.53079936  .00000074  00000-0  61540-4 0  9995
2 22220 070.9997 197.1701 0014021 326.7022 135.8876 14.16369769164626
Epoch (UTC): 29 May 2015 12:44:21
Eccentricity: 0.0014021
inclination: 70.9997°
perigee height: 827 km
apogee height: 848 km
right ascension of ascending node: 197.1701°
argument of perigee: 326.7022°
revolutions per day: 14.16369769
mean anomaly at epoch: 135.8876°
orbit number at epoch: 16462

The dashed part of the orbit path shows where the satellite is in the earth's shadow,  

DLR